Russellville, AR

4:47 PM CST on November 21, 2019 (GMT -0600)
Russellville Regional

Weather History for KRUE - August, 2019

Change the Weather History Date:

Wednesday, August 21, 2019

  Actual Average (KHOT) Record (KHOT)
Temperature  
Mean Temperature 82 °F -  
Max Temperature 98 °F 93 °F 104 °F (1993)
Min Temperature 69 °F 69 °F 58 °F (1961)
Cooling Degree Days 18    
Growing Degree Days 32 (Base 50)    
Moisture  
Dew Point 69 °F    
Average Humidity 69    
Maximum Humidity 93    
Minimum Humidity 38    
Precipitation  
Precipitation 0.00 in - - ()
Sea Level Pressure  
Sea Level Pressure 29.98 in    
Wind  
Wind Speed 2 mph (ESE)    
Max Wind Speed 8 mph    
Max Gust Speed 17 mph    
Visibility 10 miles    
Events Thunderstorm    
Averages and records for this station are not official NWS values.
T = Trace of Precipitation, MM = Missing Value Source: NWS Daily Summary

Daily Weather History Graph

Daily Weather History Graph

Search for Another Location

Airport or City:

Astronomy

Aug. 21, 2019 Rise Set
Actual Time 6:36 AM CDT 7:54 PM CDT
Civil Twilight 6:09 AM CDT 8:20 PM CDT
Nautical Twilight 5:38 AM CDT 8:52 PM CDT
Astronomical Twilight 5:05 AM CDT 9:25 PM CDT
Moon 11:24 PM CDT 12:00 PM CDT
Length of Visible Light 14h 10m
Length of Day
13h 17m
Waning Gibbous, 69% of the Moon is Illuminated
Aug 21
Waning Gibbous
Aug 23
Last Quarter
Aug 30
New
Sep 5
First Quarter
Sep 13
Full

Hourly Weather History & Observations

Time (CDT) Temp. Heat Index Dew Point Humidity Pressure Visibility Wind Dir Wind Speed Gust Speed Precip Events Conditions
12:53 AM 72.0 °F - 68.0 °F 87% 30.01 in 10.0 mi NE 4.6 mph - N/A   Clear
1:53 AM 73.9 °F - 68.0 °F 82% 30.00 in 10.0 mi Calm Calm - N/A   Clear
2:53 AM 72.0 °F - 68.0 °F 87% 29.99 in 10.0 mi Calm Calm - N/A   Clear
3:53 AM 71.1 °F - 68.0 °F 90% 29.98 in 10.0 mi Calm Calm - N/A   Clear
4:53 AM 71.1 °F - 66.9 °F 87% 29.98 in 10.0 mi NW 3.5 mph - N/A   Clear
5:53 AM 70.0 °F - 66.9 °F 90% 29.98 in 10.0 mi Calm Calm - N/A   Clear
6:53 AM 69.1 °F - 66.9 °F 93% 30.01 in 10.0 mi Calm Calm - N/A   Clear
7:53 AM 72.0 °F - 68.0 °F 87% 30.03 in 10.0 mi SSE 3.5 mph - N/A   Clear
8:53 AM 75.9 °F - 69.1 °F 79% 30.03 in 10.0 mi Calm Calm - N/A   Clear
9:53 AM 81.0 °F 84.1 °F 69.1 °F 67% 30.03 in 10.0 mi ESE 3.5 mph - N/A   Clear
10:53 AM 88.0 °F 94.7 °F 72.0 °F 59% 30.04 in 10.0 mi Calm Calm - N/A   Clear
11:53 AM 90.0 °F 97.9 °F 73.0 °F 57% 30.03 in 10.0 mi Calm Calm - N/A   Clear
12:53 PM 93.0 °F 100.1 °F 71.1 °F 49% 30.00 in 10.0 mi Calm Calm - N/A   Clear
1:53 PM 95.0 °F 102.5 °F 71.1 °F 46% 29.98 in 10.0 mi Variable 3.5 mph - N/A   Clear
2:53 PM 96.1 °F 99.9 °F 66.9 °F 38% 29.94 in 10.0 mi Calm Calm - N/A   Clear
3:53 PM 96.1 °F 102.9 °F 70.0 °F 43% 29.91 in 10.0 mi East 5.8 mph - N/A   Clear
4:53 PM 93.0 °F 100.1 °F 71.1 °F 49% 29.90 in 10.0 mi ESE 5.8 mph - N/A   Clear
5:53 PM 88.0 °F 90.3 °F 66.0 °F 48% 29.93 in 10.0 mi SSW 8.1 mph 17.3 mph N/A   Overcast
6:04 PM 86.0 °F 87.6 °F 64.9 °F 49% 29.96 in 10.0 mi Calm Calm - N/A Thunderstorm Overcast
6:32 PM 86.0 °F 88.8 °F 66.9 °F 53% 29.96 in 10.0 mi SW 3.5 mph - N/A   Mostly Cloudy
6:53 PM 84.0 °F 87.0 °F 68.0 °F 58% 29.94 in 10.0 mi East 4.6 mph - N/A   Partly Cloudy
7:53 PM 81.0 °F 84.4 °F 70.0 °F 69% 29.94 in 10.0 mi Variable 3.5 mph - N/A   Scattered Clouds
8:53 PM 79.0 °F - 72.0 °F 79% 29.95 in 10.0 mi Calm Calm - N/A   Clear
9:53 PM 78.1 °F - 72.0 °F 81% 29.94 in 10.0 mi Calm Calm - N/A   Clear
10:53 PM 75.0 °F - 71.1 °F 87% 29.94 in 10.0 mi ESE 3.5 mph - N/A   Clear
11:53 PM 75.9 °F - 72.0 °F 87% 29.96 in 10.0 mi Calm Calm - N/A   Scattered Clouds